ATLAS 5 CENTAUR DEB, 44980

Orbit data source: Space-Track

ATLAS 5 CENTAUR DEB, 44980 is space debris in HEO originally from a launch on Wed, 17 Oct 2018 UTC launched from the Air Force Eastern Test Range (AFETR). Debris objects in space refer to the collection of defunct objects orbiting the Earth. Examples of debris include non-operational satellites, rocket bodies, and fragments generated from explosions, collisions, or faulty payload assembly.

Loading next visibility...
ATLAS 5 CENTAUR DEB details
Identifier
44980, 2018-079BP
Orbit
HEO
Last TLE update2 weeks ago
Origin
Flag of USULA (US)
ManufacturerULA Decatur
MissionSpacecraft
Bus & MotorUnknown
MassUnknown
Launch date (UTC)
2018-10-17 (6 years ago)
Launch vehicleUnknown
Launch site
Air Force Eastern Test Range (AFETR)
Object type
Payload
Rocket body
Debris
Shape & HBRUnknown
Radar Cross SectionRCS unknown

Expand to show TLE details & history

TLE from 2 weeks ago
0 ATLAS 5 CENTAUR DEB
1 44980U 18079BP  24336.40699425 -.00000075  00000-0  00000-0 0  9990
2 44980  13.0267  13.7226 4482262  10.9360 356.4113  2.15708509 39703
Epoch: 2024-12-01T09:46Z
Definitive object data (Epoch: 2024-12-01T09:46:04.303Z)
Latitude0.00003°
Longitude156.44572°
Altitude7,662.23 km
Speed6.405 km/s
True Right ascension00h 54m 50s
True Declination0° 00' 00"
Sunlit
Object was in daylight at TLE epoch
Visualization TLE readout
Latitude-7.30946°
Longitude8.49118°
Altitude28,519.452 km
Speed2.663 km/s
Apparent Right ascension15h 08m 43s
Apparent Declination-12° 10' 26"
Sunlit
Object is in daylight
Visualization observer readout
Local Sidereal Time03:49:16
Azimuth20.681° NNE
Elevation-60.85°
Doppler factor1
Orbital elements
Apogee altitude30,268.345 km
Perigee altitude7,584.163 km
Semi-major axis25,304.391 km
Eccentricity0.4482262
Inclination13.0267°
RAAN13.7226°
Arg. of periapsis10.936°
True anomaly349.49957°
Mean anomaly356.4113°
Eccentric anomaly353.50735°
Mean motion0.5392 °/min
BSTARUnknown
Orbital period667.66 mins
Loading maneuver chart data...

ATLAS 5 CENTAUR DEB Visibility forecast

Observer location: undefined°, undefined

Span
Click to sort rows by Start time (UTC) header in descending order
Start Az.
Max El. time (UTC)
Max El. Az.
Max El.
End time (UTC)
End Az.
569 mins2024-12-14 09:57:14.715Z255.322° W2024-12-14 11:26:14.715Z190.776° SSW37.539°2024-12-14 19:26:14.715Z141.973° SSE
|